Detroit Metro, MI

6:44 PM EDT on August 22, 2017 (GMT -0400)
Detroit Metro Wayne County

Weather History for KDTW - September, 2013

Change the Weather History Date:

Friday, September 13, 2013

  Actual Average Record
Temperature  
Mean Temperature 54 °F 66 °F  
Max Temperature 62 °F 75 °F 97 °F (1874)
Min Temperature 45 °F 56 °F 40 °F (1975)
Degree Days  
Heating Degree Days 11 2  
Month to date heating degree days 13 19  
Since 1 July heating degree days 25 29  
Cooling Degree Days 0 3  
Month to date cooling degree days 65 53  
Year to date cooling degree days 858 764  
Growing Degree Days 5 (Base 50)    
Moisture  
Dew Point 43 °F    
Average Humidity 64    
Maximum Humidity 77    
Minimum Humidity 51    
Precipitation  
Precipitation 0.00 in 0.11 in 2.97 in (2008)
Month to date precipitation 0.25 1.43  
Year to date precipitation 31.23 23.86  
Snow  
Snow 0.00 in 0.00 in 0.00 in ()
Month to date snowfall 0.0 0.0  
Since 1 July snowfall 0.0 0.0  
Since 1 September snowfall 0.0 0.0  
Snow Depth 0.00 in    
Sea Level Pressure  
Sea Level Pressure 30.05 in    
Wind  
Wind Speed 11 mph (NNW)    
Max Wind Speed 21 mph    
Max Gust Speed 26 mph    
Visibility 10 miles    
Events      
T = Trace of Precipitation, MM = Missing Value Source: NWS Daily Summary

Daily Weather History Graph

Daily Weather History Graph

Search for Another Location

Airport or City:

Trip Planner

Search our weather history database for the weather conditions in past years. The results will help you decide how hot, cold, wet, or windy it might be!

Date:

Astronomy

Sep. 13, 2013 Rise Set
Actual Time 7:11 AM EDT 7:46 PM EDT
Civil Twilight 6:43 AM EDT 8:14 PM EDT
Nautical Twilight 6:10 AM EDT 8:47 PM EDT
Astronomical Twilight 5:35 AM EDT 9:21 PM EDT
Moon 3:39 PM EDT (9/13) 12:35 AM EDT (9/13)
Length of Visible Light 13h 30m
Length of Day
12h 34m
First Quarter, 61% of the Moon is Illuminated
Sep 13
First Quarter
Sep 19
Full
Sep 26
Last Quarter
Oct 4
New
Oct 11
First Quarter

Hourly Weather History & Observations

Time (EDT) Temp. Dew Point Humidity Pressure Visibility Wind Dir Wind Speed Gust Speed Precip Events Conditions
12:53 AM 57.9 °F 46.0 °F 65% 29.97 in 10.0 mi NNW 10.4 mph - N/A   Mostly Cloudy
1:53 AM 57.0 °F 44.1 °F 62% 29.97 in 10.0 mi NW 10.4 mph - N/A   Mostly Cloudy
2:53 AM 57.0 °F 43.0 °F 59% 29.96 in 10.0 mi NW 13.8 mph 20.7 mph N/A   Overcast
3:53 AM 55.0 °F 42.1 °F 62% 29.96 in 10.0 mi NW 13.8 mph - N/A   Overcast
4:53 AM 54.0 °F 42.1 °F 64% 29.98 in 10.0 mi NNW 12.7 mph 17.3 mph N/A   Mostly Cloudy
5:53 AM 54.0 °F 43.0 °F 66% 29.99 in 10.0 mi NW 10.4 mph - N/A   Overcast
6:39 AM 53.6 °F 44.6 °F 72% 30.00 in 10.0 mi NW 8.1 mph - N/A   Overcast
6:53 AM 53.1 °F 45.0 °F 74% 30.00 in 10.0 mi NW 10.4 mph - N/A   Overcast
7:53 AM 54.0 °F 46.0 °F 75% 30.02 in 10.0 mi NNW 10.4 mph - N/A   Overcast
8:53 AM 54.0 °F 46.9 °F 77% 30.03 in 10.0 mi NNW 12.7 mph - N/A   Overcast
9:53 AM 55.0 °F 46.0 °F 72% 30.04 in 10.0 mi NNW 16.1 mph 21.9 mph N/A   Overcast
10:33 AM 55.4 °F 44.6 °F 67% 30.06 in 10.0 mi NNW 16.1 mph 21.9 mph N/A   Overcast
10:53 AM 55.9 °F 45.0 °F 67% 30.06 in 10.0 mi NW 12.7 mph - N/A   Overcast
11:53 AM 57.9 °F 45.0 °F 62% 30.08 in 10.0 mi NNW 11.5 mph 21.9 mph N/A   Overcast
12:53 PM 60.1 °F 46.0 °F 60% 30.08 in 10.0 mi NW 15.0 mph 23.0 mph N/A   Mostly Cloudy
1:53 PM 59.0 °F 43.0 °F 55% 30.07 in 10.0 mi NW 13.8 mph 23.0 mph N/A   Mostly Cloudy
2:53 PM 60.1 °F 44.1 °F 55% 30.07 in 10.0 mi NW 12.7 mph 20.7 mph N/A   Mostly Cloudy
3:53 PM 62.1 °F 44.1 °F 52% 30.07 in 10.0 mi NNW 18.4 mph 24.2 mph N/A   Mostly Cloudy
4:53 PM 61.0 °F 42.1 °F 50% 30.08 in 10.0 mi NW 13.8 mph 23.0 mph N/A   Mostly Cloudy
5:53 PM 57.9 °F 39.9 °F 51% 30.09 in 10.0 mi NNW 11.5 mph - N/A   Scattered Clouds
6:53 PM 55.9 °F 37.9 °F 51% 30.11 in 10.0 mi NNW 10.4 mph 20.7 mph N/A   Partly Cloudy
7:53 PM 54.0 °F 37.0 °F 53% 30.12 in 10.0 mi North 6.9 mph - N/A   Partly Cloudy
8:53 PM 52.0 °F 37.9 °F 59% 30.14 in 10.0 mi NNE 3.5 mph - N/A   Clear
9:53 PM 50.0 °F 39.0 °F 66% 30.15 in 10.0 mi North 4.6 mph - N/A   Clear
10:53 PM 48.9 °F 37.9 °F 66% 30.16 in 10.0 mi NNE 4.6 mph - N/A   Clear
11:53 PM 46.9 °F 39.0 °F 74% 30.16 in 10.0 mi NW 3.5 mph - N/A   Clear